Tracking 19170 objects as of 22-May-2018
HD Live streaming from Space Station
objects crossing your sky now

TDRS 8

Track TDRS 8 now!
TDRS 8 is classified as:


NORAD ID: 26388
Int'l Code: 2000-034A
Perigee: 35,754.0 km
Apogee: 35,829.9 km
Inclination: 8.0 °
Period: 1,436.0 minutes
Semi major axis: 42162 km
RCS: 25.9293 m2 (large)
Launch date: June 30, 2000
Source: United States (US)
Launch site: AIR FORCE EASTERN TEST RANGE (AFETR)

Tracking and communications with space shuttle, other missions.
aabbcc
Your satellite tracking list
Your tracking list is empty




NASA's NSSDC Master Catalog

Two Line Element Set (TLE):
1 26388U 00034A   18142.23307097 -.00000247 +00000-0 +00000-0 0  9995
2 26388 008.0481 053.0666 0009006 300.5574 059.2249 01.00278256065626
Source of the keplerian elements: AFSPC